Regional Weather Roundup
Issued by NWS

Home | Current Version | Previous Version | Graphics & Text | Print | Product List | Glossary On
Versions: 1 2 3 4 5 6 7 8 9 10 11 12 13 14 15 16 17 18 19 20 21 22 23 24 25 26 27 28 29 30 31 32 33 34 35 36 37 38 39 40 41 42 43 44 45 46 47 48 49 50
000
ASUS45 KBOU 171807
RWRCO

WEATHER ROUNDUP FOR COLORADO
NATIONAL WEATHER SERVICE DENVER/BOULDER CO
1200 PM MDT WED SEP 17 2014

NOTE: "FAIR" INDICATES FEW OR NO CLOUDS BELOW 12000 FEET WITH NO
SIGNIFICANT WEATHER AND/OR OBSTRUCTIONS TO VISIBILITY.

COZ001>005-013-030-031-171900-
...NORTHWEST COLORADO...

CITY           SKY/WX    TMP DP  RH WIND       PRES   REMARKS
CRAIG          SUNNY     77  42  28 CALM      30.18F
HAYDEN         SUNNY     75  39  27 E7        30.20F
MEEKER         MOSUNNY   77  41  27 CALM      30.19F
MOUNT WERNER   NOT AVBL
STEAMBOAT SPGS SUNNY     69  40  34 CALM      30.22F
WALDEN         SUNNY     70  36  28 SE5       30.31F
$$

COZ006>008-011-171900-
...WEST CENTRAL VALLEYS...

CITY           SKY/WX    TMP DP  RH WIND       PRES   REMARKS
GRAND JUNCTION MOSUNNY   75  42  30 S8        30.10F
MONTROSE       SUNNY     78  46  32 VRB6      30.16F
EAGLE          MOSUNNY   66  37  34 CALM      30.26F
RIFLE          MOSUNNY   74  42  31 N5        30.14F
DELTA          SUNNY     79  40  25 CALM      30.13F
NUCLA          SUNNY     73  46  38 N6        30.20F
$$

COZ017>023-064>068-171900-
...SOUTHWEST COLORADO...

CITY           SKY/WX    TMP DP  RH WIND       PRES   REMARKS
DURANGO        CLOUDY    69  49  48 CALM      30.23F
CORTEZ         MOSUNNY   74  53  48 S6        30.19F
PAGOSA SPRINGS CLOUDY    68  43  40 CALM      30.29F
TELLURIDE      NOT AVBL
WOLF CREEK PAS CLOUDY    52  34  50 NE7       30.56F
$$

COZ009-010-012-014-032>034-037-058>063-171900-
...CENTRAL COLORADO...

CITY           SKY/WX    TMP DP  RH WIND       PRES   REMARKS
ASPEN          MOSUNNY   74  37  26 VRB5      30.27F
BUENA VISTA    MOSUNNY   73  31  21 CALM      30.28F
COPPER MTN     MOSUNNY   61  30  31 W7        30.59F
BERTHOUD PASS  FAIR      50  48  93 NE6       30.64F
COTTONWOOD PAS MOSUNNY   70  23  17 CALM      30.43F
GUNNISON       SUNNY     64  37  36 SW3       30.32F
KREMMLING      SUNNY     64  30  27 CALM      30.30F
LEADVILLE      MOSUNNY   63  24  22 VRB3      30.42F
MONARCH PASS   PTSUNNY   52  32  46 NE7       30.69S
SALIDA         MOSUNNY   77  36  23 S5        30.33F
SUNLIGHT       MOSUNNY   61  36  39 CALM      30.53S
WILKERSON PASS NOT AVBL
$$

COZ069>075-171900-
...SAN LUIS VALLEY/SANGRE DE CRISTO MOUNTAINS...

CITY           SKY/WX    TMP DP  RH WIND       PRES   REMARKS
ALAMOSA        CLOUDY    68  47  46 CALM      30.27F
LA VETA PASS   NOT AVBL
SAGUACHE       MOSUNNY   72  37  28 W3        30.29S
$$

COZ035-036-038>040-171900-
...NORTHERN COLORADO FRONT RANGE...

CITY           SKY/WX    TMP DP  RH WIND       PRES   REMARKS
DENVER INTL AP MOSUNNY   84  38  19 CALM      30.09F
DMNS CITY PARK   N/A     85  37  18 NE2       30.08F
AURORA         MOSUNNY   82  36  19 VRB1      30.12F
FRONT RANGE AP PTSUNNY   82  55  39 CALM      30.11
ERIE MUNI ARPT MOSUNNY   85  35  17 S3        30.07F
BOULDER MUN AP MOSUNNY   79  41  25 CALM      30.08F
CENTENNIAL     MOSUNNY   82  33  17 NE6       30.13F
BROOMFIELD     PTSUNNY   82  36  18 VRB5      30.12F
FORT COLLINS   SUNNY     82  48  30 S5        30.07F
LONGMONT       SUNNY     86  43  22 CALM      30.08F
$$

COZ041-046-047-076>085-087-088-171900-
...PIKES PEAK/PALMER DIVIDE AND SOUTHERN FOOTHILLS...

CITY           SKY/WX    TMP DP  RH WIND       PRES   REMARKS
COLO. SPRINGS  PTSUNNY   83  35  18 SE9       30.15F
A. F. ACADEMY  MOSUNNY   81  34  17 NE5       30.16F
ELLICOTT       NOT AVBL
FALCON         MOSUNNY   82  33  16 S5        30.21F
FORT CARSON    PTSUNNY   83  43  24 W2        30.12F
LIMON          SUNNY     86  37  17 NW9       30.08F
MONUMENT HILL  SUNNY     77  32  19 N5        30.21F
TRINIDAD       CLOUDY    79  44  28 CALM      30.13F
$$

COZ042>045-048>051-090-091-171900-
...NORTHEAST COLORADO...

CITY           SKY/WX    TMP DP  RH WIND       PRES   REMARKS
GREELEY ARPT   MOSUNNY   82  43  24 NW5       30.05
AKRON          SUNNY     81  43  26 NW12      30.04S
BURLINGTON     SUNNY     89  43  20 S7G16     30.00F
WRAY           SUNNY     85  45  24 W5        29.98F
STERLING       SUNNY     82  57  42 S6        29.98F
HOLYOKE        SUNNY     84  52  32 S3        29.97F
FORT MORGAN    SUNNY     87  44  22 SW7       30.03F
$$

COZ086-089-092>099-171900-
...SOUTHEAST COLORADO...

CITY           SKY/WX    TMP DP  RH WIND       PRES   REMARKS
PUEBLO         MOSUNNY   85  41  21 SE6       30.04F
LA JUNTA       PTSUNNY   82  45  27 SW6       30.02F
LAMAR          PTSUNNY   87  47  24 VRB3      29.97F
SPRINGFIELD      N/A     84  50  30 S6        30.03F
$$



USA.gov is the U.S. government's official web portal to all federal, state and local government web resources and services.